Year,Month,Day,Hour,Minute,Value (Times are PST for temperature in C)
2019,12,06,00,00,4.80
2019,12,06,00,01,4.80
2019,12,06,00,02,4.80
2019,12,06,00,03,4.80
2019,12,06,00,04,4.80
2019,12,06,00,05,4.80
2019,12,06,00,06,4.80
2019,12,06,00,07,4.80
2019,12,06,00,08,4.80
2019,12,06,00,09,4.80
2019,12,06,00,10,4.80
2019,12,06,00,11,4.80
2019,12,06,00,12,4.80
2019,12,06,00,13,4.80
2019,12,06,00,14,4.80
2019,12,06,00,15,4.80
2019,12,06,00,16,4.80
2019,12,06,00,17,4.80
2019,12,06,00,18,4.80
2019,12,06,00,19,4.80
2019,12,06,00,20,4.80
2019,12,06,00,21,4.80
2019,12,06,00,22,4.80
2019,12,06,00,23,4.70
2019,12,06,00,24,4.70
2019,12,06,00,25,4.70
2019,12,06,00,26,4.70
2019,12,06,00,27,4.70
2019,12,06,00,28,4.70
2019,12,06,00,29,4.70
2019,12,06,00,30,4.70
2019,12,06,00,31,4.70
2019,12,06,00,32,4.70
2019,12,06,00,33,4.70
2019,12,06,00,34,4.70
2019,12,06,00,35,4.70
2019,12,06,00,36,4.70
2019,12,06,00,37,4.70
2019,12,06,00,38,4.70
2019,12,06,00,39,4.70
2019,12,06,00,40,4.70
2019,12,06,00,41,4.70
2019,12,06,00,42,4.70
2019,12,06,00,43,4.70
2019,12,06,00,44,4.70
2019,12,06,00,45,4.70
2019,12,06,00,46,4.70
2019,12,06,00,47,4.70
2019,12,06,00,48,4.70
2019,12,06,00,49,4.70
2019,12,06,00,50,4.70
2019,12,06,00,51,4.70
2019,12,06,00,52,4.70
2019,12,06,00,53,4.70
2019,12,06,00,54,4.70
2019,12,06,00,55,4.70
2019,12,06,00,56,4.70
2019,12,06,00,57,4.70
2019,12,06,00,58,4.70
2019,12,06,00,59,4.70
2019,12,06,01,00,4.70
2019,12,06,01,01,4.70
2019,12,06,01,02,4.70
2019,12,06,01,03,4.70
2019,12,06,01,04,4.70
2019,12,06,01,05,4.70
2019,12,06,01,06,4.70
2019,12,06,01,07,4.70
2019,12,06,01,08,4.70
2019,12,06,01,09,4.70
2019,12,06,01,10,4.70
2019,12,06,01,11,4.70
2019,12,06,01,12,4.70
2019,12,06,01,13,4.70
2019,12,06,01,14,4.70
2019,12,06,01,15,4.70
2019,12,06,01,16,4.70
2019,12,06,01,17,4.70
2019,12,06,01,18,4.70
2019,12,06,01,19,4.70
2019,12,06,01,20,4.70
2019,12,06,01,21,4.70
2019,12,06,01,22,4.70
2019,12,06,01,23,4.70
2019,12,06,01,24,4.70
2019,12,06,01,25,4.70
2019,12,06,01,26,4.70
2019,12,06,01,27,4.70
2019,12,06,01,28,4.70
2019,12,06,01,29,4.70
2019,12,06,01,30,4.70
2019,12,06,01,31,4.70
2019,12,06,01,32,4.70
2019,12,06,01,33,4.70
2019,12,06,01,34,4.70
2019,12,06,01,35,4.70
2019,12,06,01,36,4.70
2019,12,06,01,37,4.70
2019,12,06,01,38,4.70
2019,12,06,01,39,4.70
2019,12,06,01,40,4.70
2019,12,06,01,41,4.70
2019,12,06,01,42,4.70
2019,12,06,01,43,4.70
2019,12,06,01,44,4.70
2019,12,06,01,45,4.70
2019,12,06,01,46,4.80
2019,12,06,01,47,4.70
2019,12,06,01,48,4.70
2019,12,06,01,49,4.80
2019,12,06,01,50,4.80
2019,12,06,01,51,4.80
2019,12,06,01,52,4.80
2019,12,06,01,53,4.80
2019,12,06,01,54,4.80
2019,12,06,01,55,4.80
2019,12,06,01,56,4.80
2019,12,06,01,57,4.80
2019,12,06,01,58,4.80
2019,12,06,01,59,4.80
2019,12,06,02,00,4.80
2019,12,06,02,01,4.80
2019,12,06,02,02,4.80
2019,12,06,02,03,4.80
2019,12,06,02,04,4.80
2019,12,06,02,05,4.80
2019,12,06,02,06,4.80
2019,12,06,02,07,4.80
2019,12,06,02,08,4.80
2019,12,06,02,09,4.80
2019,12,06,02,10,4.80
2019,12,06,02,11,4.80
2019,12,06,02,12,4.80
2019,12,06,02,13,4.80
2019,12,06,02,14,4.80
2019,12,06,02,15,4.80
2019,12,06,02,16,4.80
2019,12,06,02,17,4.80
2019,12,06,02,18,4.80
2019,12,06,02,19,4.80
2019,12,06,02,20,4.80
2019,12,06,02,21,4.80
2019,12,06,02,22,4.80
2019,12,06,02,23,4.80
2019,12,06,02,24,4.80
2019,12,06,02,25,4.80
2019,12,06,02,26,4.80
2019,12,06,02,27,4.80
2019,12,06,02,28,4.80
2019,12,06,02,29,4.80
2019,12,06,02,30,4.80
2019,12,06,02,31,4.80
2019,12,06,02,32,4.80
2019,12,06,02,33,4.80
2019,12,06,02,34,4.80
2019,12,06,02,35,4.80
2019,12,06,02,36,4.80
2019,12,06,02,37,4.80
2019,12,06,02,38,4.80
2019,12,06,02,39,4.80
2019,12,06,02,40,4.80
2019,12,06,02,41,4.80
2019,12,06,02,42,4.80
2019,12,06,02,43,4.80
2019,12,06,02,44,4.80
2019,12,06,02,45,4.80
2019,12,06,02,46,4.80
2019,12,06,02,47,4.80
2019,12,06,02,48,4.80
2019,12,06,02,49,4.80
2019,12,06,02,50,4.80
2019,12,06,02,51,4.80
2019,12,06,02,52,4.80
2019,12,06,02,53,4.80
2019,12,06,02,54,4.80
2019,12,06,02,55,4.90
2019,12,06,02,56,4.90
2019,12,06,02,57,4.90
2019,12,06,02,58,4.90
2019,12,06,02,59,4.90
2019,12,06,03,00,4.90
2019,12,06,03,01,4.90
2019,12,06,03,02,4.90
2019,12,06,03,03,4.90
2019,12,06,03,04,4.90
2019,12,06,03,05,4.90
2019,12,06,03,06,4.90
2019,12,06,03,07,4.90
2019,12,06,03,08,4.90
2019,12,06,03,09,4.90
2019,12,06,03,10,4.90
2019,12,06,03,11,4.90
2019,12,06,03,12,4.90
2019,12,06,03,13,4.90
2019,12,06,03,14,4.90
2019,12,06,03,15,4.90
2019,12,06,03,16,5.00
2019,12,06,03,17,5.00
2019,12,06,03,18,5.00
2019,12,06,03,19,5.00
2019,12,06,03,20,5.00
2019,12,06,03,21,5.00
2019,12,06,03,22,5.10
2019,12,06,03,23,5.10
2019,12,06,03,24,5.10
2019,12,06,03,25,5.10
2019,12,06,03,26,5.10
2019,12,06,03,27,5.10
2019,12,06,03,28,5.10
2019,12,06,03,29,5.10
2019,12,06,03,30,5.10
2019,12,06,03,31,5.10
2019,12,06,03,32,5.10
2019,12,06,03,33,5.10
2019,12,06,03,34,5.10
2019,12,06,03,35,5.10
2019,12,06,03,36,5.10
2019,12,06,03,37,5.10
2019,12,06,03,38,5.10
2019,12,06,03,39,5.10
2019,12,06,03,40,5.10
2019,12,06,03,41,5.10
2019,12,06,03,42,5.10
2019,12,06,03,43,5.10
2019,12,06,03,44,5.10
2019,12,06,03,45,5.10
2019,12,06,03,46,5.10
2019,12,06,03,47,5.10
2019,12,06,03,48,5.10
2019,12,06,03,49,5.10
2019,12,06,03,50,5.10
2019,12,06,03,51,5.20
2019,12,06,03,52,5.20
2019,12,06,03,53,5.20
2019,12,06,03,54,5.20
2019,12,06,03,55,5.20
2019,12,06,03,56,5.20
2019,12,06,03,57,5.20
2019,12,06,03,58,5.20
2019,12,06,03,59,5.20
2019,12,06,04,00,5.20
2019,12,06,04,01,5.20
2019,12,06,04,02,5.20
2019,12,06,04,03,5.20
2019,12,06,04,04,5.20
2019,12,06,04,05,5.20
2019,12,06,04,06,5.20
2019,12,06,04,07,5.20
2019,12,06,04,08,5.20
2019,12,06,04,09,5.20
2019,12,06,04,10,5.20
2019,12,06,04,11,5.20
2019,12,06,09,24,5.60
2019,12,06,09,25,5.60
2019,12,06,09,26,5.60
2019,12,06,09,27,5.60
2019,12,06,09,28,5.70
2019,12,06,09,29,5.70
2019,12,06,09,30,5.70
2019,12,06,09,31,5.70
2019,12,06,09,32,5.70
2019,12,06,09,33,5.70
2019,12,06,09,34,5.70
2019,12,06,09,35,5.70
2019,12,06,09,36,5.70
2019,12,06,09,37,5.70
2019,12,06,09,38,5.70
2019,12,06,09,39,5.70
2019,12,06,09,40,5.70
2019,12,06,09,41,5.70
2019,12,06,09,42,5.70
2019,12,06,09,43,5.70
2019,12,06,09,44,5.70
2019,12,06,09,45,5.70
2019,12,06,09,46,5.70
2019,12,06,09,47,5.70
2019,12,06,09,48,5.70
2019,12,06,09,49,5.70
2019,12,06,09,50,5.70
2019,12,06,09,51,5.70
2019,12,06,09,52,5.70
2019,12,06,09,53,5.70
2019,12,06,09,54,5.70
2019,12,06,09,55,5.70
2019,12,06,09,56,5.70
2019,12,06,09,57,5.70
2019,12,06,09,58,5.70
2019,12,06,09,59,5.70
2019,12,06,10,00,5.70
2019,12,06,10,01,5.70
2019,12,06,10,02,5.70
2019,12,06,10,03,5.70
2019,12,06,10,04,5.70
2019,12,06,10,05,5.70
2019,12,06,10,06,5.70
2019,12,06,10,07,5.70
2019,12,06,10,08,5.70
2019,12,06,10,09,5.80
2019,12,06,10,10,5.80
2019,12,06,10,11,5.80
2019,12,06,10,12,5.80
2019,12,06,10,13,5.80
2019,12,06,10,14,5.80
2019,12,06,10,15,5.80
2019,12,06,10,16,5.80
2019,12,06,10,17,5.90
2019,12,06,10,18,5.90
2019,12,06,10,19,5.90
2019,12,06,10,20,5.90
2019,12,06,10,21,6.00
2019,12,06,10,22,6.10
2019,12,06,10,23,6.10
2019,12,06,10,24,6.10
2019,12,06,10,25,6.20
2019,12,06,10,26,6.20
2019,12,06,10,27,6.20
2019,12,06,10,28,6.20
2019,12,06,10,29,6.30
2019,12,06,10,30,6.30
2019,12,06,10,31,6.30
2019,12,06,10,32,6.30
2019,12,06,10,33,6.40
2019,12,06,10,34,6.40
2019,12,06,10,35,6.50
2019,12,06,10,36,6.50
2019,12,06,10,37,6.60
2019,12,06,10,38,6.60
2019,12,06,10,39,6.60
2019,12,06,10,40,6.70
2019,12,06,10,41,6.80
2019,12,06,10,42,6.80
2019,12,06,10,43,6.80
2019,12,06,10,44,6.90
2019,12,06,10,45,6.90
2019,12,06,10,46,6.90
2019,12,06,10,47,7.00
2019,12,06,10,48,7.00
2019,12,06,10,49,7.10
2019,12,06,10,50,7.10
2019,12,06,10,51,7.20
2019,12,06,10,52,7.20
2019,12,06,10,53,7.20
2019,12,06,10,54,7.30
2019,12,06,10,55,7.30
2019,12,06,10,56,7.30
2019,12,06,10,57,7.30
2019,12,06,10,58,7.40
2019,12,06,10,59,7.40
2019,12,06,11,00,7.40
2019,12,06,11,01,7.40
2019,12,06,11,02,7.40
2019,12,06,11,03,7.40
2019,12,06,11,04,7.40
2019,12,06,11,05,7.40
2019,12,06,11,06,7.40
2019,12,06,11,07,7.40
2019,12,06,11,08,7.40
2019,12,06,11,09,7.50
2019,12,06,11,10,7.50
2019,12,06,11,11,7.60
2019,12,06,11,12,7.60
2019,12,06,11,13,7.70
2019,12,06,11,14,7.70
2019,12,06,11,15,7.80
2019,12,06,11,16,7.80
2019,12,06,11,17,7.80
2019,12,06,11,18,7.80
2019,12,06,11,19,7.80
2019,12,06,11,20,7.90
2019,12,06,11,21,7.90
2019,12,06,11,22,7.90
2019,12,06,11,23,7.90
2019,12,06,11,24,7.90
2019,12,06,11,25,7.90
2019,12,06,11,26,7.90
2019,12,06,11,27,7.90
2019,12,06,11,28,7.90
2019,12,06,11,29,7.90
2019,12,06,11,30,7.90
2019,12,06,11,31,7.90
2019,12,06,11,32,7.90
2019,12,06,11,33,7.90
2019,12,06,11,34,7.90
2019,12,06,11,35,7.90
2019,12,06,11,36,7.90
2019,12,06,11,37,8.00
2019,12,06,11,38,8.00
2019,12,06,11,39,8.00
2019,12,06,11,40,8.00
2019,12,06,11,41,8.00
2019,12,06,11,42,8.00
2019,12,06,11,43,8.00
2019,12,06,11,44,8.00
2019,12,06,11,45,8.00
2019,12,06,11,46,8.00
2019,12,06,11,47,8.00
2019,12,06,11,48,8.10
2019,12,06,11,49,8.10
2019,12,06,11,50,8.10
2019,12,06,11,51,8.10
2019,12,06,11,52,8.10
2019,12,06,11,53,8.10
2019,12,06,11,54,8.10
2019,12,06,11,55,8.10
2019,12,06,11,56,8.10
2019,12,06,11,57,8.10
2019,12,06,11,58,8.10
2019,12,06,11,59,8.10
2019,12,06,12,00,8.10
2019,12,06,12,01,8.10
2019,12,06,12,02,8.10
2019,12,06,12,03,8.10
2019,12,06,12,04,8.10
2019,12,06,12,05,8.10
2019,12,06,12,06,8.10
2019,12,06,12,07,8.10
2019,12,06,12,08,8.10
2019,12,06,12,09,8.10
2019,12,06,12,10,8.20
2019,12,06,12,11,8.20
2019,12,06,12,12,8.20
2019,12,06,12,13,8.30
2019,12,06,12,14,8.30
2019,12,06,12,15,8.30
2019,12,06,12,16,8.30
2019,12,06,12,17,8.30
2019,12,06,12,18,8.30
2019,12,06,12,19,8.30
2019,12,06,12,20,8.30
2019,12,06,12,21,8.30
2019,12,06,12,22,8.30
2019,12,06,12,23,8.30
2019,12,06,12,24,8.30
2019,12,06,12,25,8.30
2019,12,06,12,26,8.30
2019,12,06,12,27,8.30
2019,12,06,12,28,8.30
2019,12,06,12,29,8.30
2019,12,06,12,30,8.30
2019,12,06,12,31,8.30
2019,12,06,12,32,8.40
2019,12,06,12,33,8.40
2019,12,06,12,34,8.40
2019,12,06,12,35,8.40
2019,12,06,12,36,8.40
2019,12,06,12,37,8.40
2019,12,06,12,38,8.40
2019,12,06,12,39,8.40
2019,12,06,12,40,8.40
2019,12,06,12,41,8.40
2019,12,06,12,42,8.40
2019,12,06,12,43,8.40
2019,12,06,12,44,8.40
2019,12,06,12,45,8.40
2019,12,06,12,46,8.50
2019,12,06,12,47,8.50
2019,12,06,12,48,8.60
2019,12,06,12,49,8.60
2019,12,06,12,50,8.60
2019,12,06,12,51,8.60
2019,12,06,12,52,8.60
2019,12,06,12,53,8.60
2019,12,06,12,54,8.60
2019,12,06,12,55,8.60
2019,12,06,12,56,8.60
2019,12,06,12,57,8.70
2019,12,06,12,58,8.70
2019,12,06,12,59,8.80
2019,12,06,13,00,8.80
2019,12,06,13,01,8.80
2019,12,06,13,02,8.80
2019,12,06,13,03,8.90
2019,12,06,13,04,8.80
2019,12,06,13,05,8.80
2019,12,06,13,06,8.80
2019,12,06,13,07,8.80
2019,12,06,13,08,8.80
2019,12,06,13,09,8.80
2019,12,06,13,10,8.80
2019,12,06,13,11,8.80
2019,12,06,13,12,8.90
2019,12,06,13,13,8.90
2019,12,06,13,14,8.90
2019,12,06,13,15,8.90
2019,12,06,13,16,8.90
2019,12,06,13,17,8.90
2019,12,06,13,18,8.90
2019,12,06,13,19,8.90
2019,12,06,13,20,8.90
2019,12,06,13,21,8.90
2019,12,06,13,22,8.90
2019,12,06,13,23,8.90
2019,12,06,13,24,8.90
2019,12,06,13,25,8.90
2019,12,06,13,26,8.90
2019,12,06,13,27,8.90
2019,12,06,13,28,8.90
2019,12,06,13,29,8.80
2019,12,06,13,30,8.80
2019,12,06,13,31,8.80
2019,12,06,13,32,8.80
2019,12,06,13,33,8.80
2019,12,06,13,34,8.80
2019,12,06,13,35,8.80
2019,12,06,13,36,8.80
2019,12,06,13,37,8.80
2019,12,06,13,38,8.80
2019,12,06,13,39,8.80
2019,12,06,13,40,8.80
2019,12,06,13,41,8.80
2019,12,06,13,42,8.80
2019,12,06,13,43,8.80
2019,12,06,13,44,8.80
2019,12,06,13,45,8.80
2019,12,06,13,46,8.80
2019,12,06,13,47,8.80
2019,12,06,13,48,8.70
2019,12,06,13,49,8.70
2019,12,06,13,50,8.70
2019,12,06,13,51,8.70
2019,12,06,13,52,8.70
2019,12,06,13,53,8.70
2019,12,06,13,54,8.70
2019,12,06,13,55,8.70
2019,12,06,13,56,8.70
2019,12,06,13,57,8.70
2019,12,06,13,58,8.70
2019,12,06,13,59,8.70
2019,12,06,14,00,8.60
2019,12,06,14,01,8.60
2019,12,06,14,02,8.60
2019,12,06,14,03,8.60
2019,12,06,14,04,8.60
2019,12,06,14,05,8.60
2019,12,06,14,06,8.50
2019,12,06,14,07,8.50
2019,12,06,14,08,8.50
2019,12,06,14,09,8.50
2019,12,06,14,10,8.40
2019,12,06,14,11,8.40
2019,12,06,14,12,8.40
2019,12,06,14,13,8.40
2019,12,06,14,14,8.30
2019,12,06,14,15,8.30
2019,12,06,14,16,8.30
2019,12,06,14,17,8.30
2019,12,06,14,18,8.30
2019,12,06,14,19,8.30
2019,12,06,14,20,8.30
2019,12,06,14,21,8.30
2019,12,06,14,22,8.30
2019,12,06,14,23,8.30
2019,12,06,14,24,8.30
2019,12,06,14,25,8.30
2019,12,06,14,26,8.30
2019,12,06,14,27,8.30
2019,12,06,14,28,8.20
2019,12,06,14,29,8.20
2019,12,06,14,30,8.20
2019,12,06,14,31,8.20
2019,12,06,14,32,8.20
2019,12,06,14,33,8.20
2019,12,06,14,34,8.20
2019,12,06,14,35,8.10
2019,12,06,14,36,8.10
2019,12,06,14,37,8.10
2019,12,06,14,38,8.10
2019,12,06,14,39,8.10
2019,12,06,14,40,8.10
2019,12,06,14,41,8.10
2019,12,06,14,42,8.10
2019,12,06,14,43,8.00
2019,12,06,14,44,8.00
2019,12,06,14,45,8.00
2019,12,06,14,46,8.00
2019,12,06,14,47,7.90
2019,12,06,14,48,7.90
2019,12,06,14,49,7.90
2019,12,06,14,50,7.90
2019,12,06,14,51,7.90
2019,12,06,14,52,7.90
2019,12,06,14,53,7.80
2019,12,06,14,54,7.80
2019,12,06,14,55,7.80
2019,12,06,14,56,7.80
2019,12,06,14,57,7.80
2019,12,06,14,58,7.80
2019,12,06,14,59,7.80
2019,12,06,15,00,7.80
2019,12,06,15,01,7.70
2019,12,06,15,02,7.70
2019,12,06,15,03,7.70
2019,12,06,15,04,7.70
2019,12,06,15,05,7.70
2019,12,06,15,06,7.70
2019,12,06,15,07,7.60
2019,12,06,15,08,7.60
2019,12,06,15,09,7.60
2019,12,06,15,10,7.60
2019,12,06,15,11,7.60
2019,12,06,15,12,7.60
2019,12,06,15,13,7.70
2019,12,06,15,14,7.70
2019,12,06,15,15,7.60
2019,12,06,15,16,7.60
2019,12,06,15,17,7.60
2019,12,06,15,18,7.60
2019,12,06,15,19,7.60
2019,12,06,15,20,7.60
2019,12,06,15,21,7.60
2019,12,06,15,22,7.60
2019,12,06,15,23,7.60
2019,12,06,15,24,7.50
2019,12,06,15,25,7.50
2019,12,06,15,26,7.50
2019,12,06,15,27,7.50
2019,12,06,15,28,7.50
2019,12,06,15,29,7.50
2019,12,06,15,30,7.50
2019,12,06,15,31,7.40
2019,12,06,15,32,7.40
2019,12,06,15,33,7.40
2019,12,06,15,34,7.40
2019,12,06,15,35,7.40
2019,12,06,15,36,7.40
2019,12,06,15,37,7.40
2019,12,06,15,38,7.40
2019,12,06,15,39,7.40
2019,12,06,15,40,7.40
2019,12,06,15,41,7.40
2019,12,06,15,42,7.40
2019,12,06,15,43,7.40
2019,12,06,15,44,7.40
2019,12,06,15,45,7.40
2019,12,06,15,46,7.40
2019,12,06,15,47,7.40
2019,12,06,15,48,7.40
2019,12,06,15,49,7.40
2019,12,06,15,50,7.40
2019,12,06,15,51,7.40
2019,12,06,15,52,7.40
2019,12,06,15,53,7.40
2019,12,06,15,54,7.40
2019,12,06,15,55,7.40
2019,12,06,15,56,7.40
2019,12,06,15,57,7.40
2019,12,06,15,58,7.40
2019,12,06,15,59,7.30
2019,12,06,16,00,7.30
2019,12,06,16,01,7.30
2019,12,06,16,02,7.30
2019,12,06,16,03,7.30
2019,12,06,16,04,7.30
2019,12,06,16,05,7.30
2019,12,06,16,06,7.20
2019,12,06,16,07,7.20
2019,12,06,16,08,7.20
2019,12,06,16,09,7.20
2019,12,06,16,10,7.20
2019,12,06,16,11,7.20
2019,12,06,16,12,7.20
2019,12,06,16,13,7.20
2019,12,06,16,14,7.20
2019,12,06,16,15,7.20
2019,12,06,16,16,7.20
2019,12,06,16,17,7.20
2019,12,06,16,18,7.20
2019,12,06,16,19,7.20
2019,12,06,16,20,7.20
2019,12,06,16,21,7.20
2019,12,06,16,22,7.20
2019,12,06,16,23,7.20
2019,12,06,16,24,7.20
2019,12,06,16,25,7.20
2019,12,06,16,26,7.20
2019,12,06,16,27,7.20
2019,12,06,16,28,7.10
2019,12,06,16,29,7.10
2019,12,06,16,30,7.10
2019,12,06,16,31,7.10
2019,12,06,16,32,7.10
2019,12,06,16,33,7.10
2019,12,06,16,34,7.10
2019,12,06,16,35,7.10
2019,12,06,16,36,7.10
2019,12,06,16,37,7.10
2019,12,06,16,38,7.10
2019,12,06,16,39,7.10
2019,12,06,16,40,7.10
2019,12,06,16,41,7.10
2019,12,06,16,42,7.10
2019,12,06,16,43,7.00
2019,12,06,16,44,7.00
2019,12,06,16,45,7.00
2019,12,06,16,46,7.00
2019,12,06,16,47,7.00
2019,12,06,16,48,7.00
2019,12,06,16,49,6.90
2019,12,06,16,50,6.90
2019,12,06,16,51,6.90
2019,12,06,16,52,6.90
2019,12,06,16,53,6.90
2019,12,06,16,54,6.90
2019,12,06,16,55,6.90
2019,12,06,16,56,6.90
2019,12,06,16,57,6.90
2019,12,06,16,58,6.90
2019,12,06,16,59,6.90
2019,12,06,17,00,6.90
2019,12,06,17,01,6.90
2019,12,06,17,02,6.90
2019,12,06,17,03,6.90
2019,12,06,17,04,6.90
2019,12,06,17,05,6.90
2019,12,06,17,06,6.90
2019,12,06,17,07,6.90
2019,12,06,17,08,6.90
2019,12,06,17,09,6.90
2019,12,06,17,10,6.90
2019,12,06,17,11,6.90
2019,12,06,17,12,6.90
2019,12,06,17,13,6.90
2019,12,06,17,14,6.90
2019,12,06,17,15,6.90
2019,12,06,17,16,6.90
2019,12,06,17,17,6.90
2019,12,06,17,18,6.90
2019,12,06,17,19,6.80
2019,12,06,17,20,6.80
2019,12,06,17,21,6.80
2019,12,06,17,22,6.80
2019,12,06,17,23,6.80
2019,12,06,17,24,6.80
2019,12,06,17,25,6.80
2019,12,06,17,26,6.80
2019,12,06,17,27,6.80
2019,12,06,17,28,6.80
2019,12,06,17,29,6.80
2019,12,06,17,30,6.80
2019,12,06,17,31,6.80
2019,12,06,17,32,6.80
2019,12,06,17,33,6.80
2019,12,06,17,34,6.80
2019,12,06,17,35,6.80
2019,12,06,17,36,6.80
2019,12,06,17,37,6.80
2019,12,06,17,38,6.80
2019,12,06,17,39,6.80
2019,12,06,17,40,6.80
2019,12,06,17,41,6.80
2019,12,06,17,42,6.80
2019,12,06,17,43,6.80
2019,12,06,17,44,6.80
2019,12,06,17,45,6.80
2019,12,06,17,46,6.80
2019,12,06,17,47,6.80
2019,12,06,17,48,6.80
2019,12,06,17,49,6.80
2019,12,06,17,50,6.80
2019,12,06,17,51,6.80
2019,12,06,17,52,6.80
2019,12,06,17,53,6.80
2019,12,06,17,54,6.80
2019,12,06,17,55,6.80
2019,12,06,17,56,6.80
2019,12,06,17,57,6.80
2019,12,06,17,58,6.80
2019,12,06,17,59,6.80
2019,12,06,18,00,6.80
2019,12,06,18,01,6.80
2019,12,06,18,02,6.80
2019,12,06,18,03,6.80
2019,12,06,18,04,6.80
2019,12,06,18,05,6.80
2019,12,06,18,06,6.80
2019,12,06,18,07,6.80
2019,12,06,18,08,6.80
2019,12,06,18,09,6.80
2019,12,06,18,10,6.80
2019,12,06,18,11,6.80
2019,12,06,18,12,6.80
2019,12,06,18,13,6.80
2019,12,06,18,14,6.80
2019,12,06,18,15,6.80
2019,12,06,18,16,6.80
2019,12,06,18,17,6.80
2019,12,06,18,18,6.80
2019,12,06,18,19,6.80
2019,12,06,18,20,6.80
2019,12,06,18,21,6.80
2019,12,06,18,22,6.80
2019,12,06,18,23,6.80
2019,12,06,18,24,6.80
2019,12,06,18,25,6.80
2019,12,06,18,26,6.80
2019,12,06,18,27,6.80
2019,12,06,18,28,6.80
2019,12,06,18,29,6.80
2019,12,06,18,30,6.80
2019,12,06,18,31,6.80
2019,12,06,18,32,6.80
2019,12,06,18,33,6.80
2019,12,06,18,34,6.80
2019,12,06,18,35,6.80
2019,12,06,18,36,6.80
2019,12,06,18,37,6.80
2019,12,06,18,38,6.80
2019,12,06,18,39,6.70
2019,12,06,18,40,6.80
2019,12,06,18,41,6.70
2019,12,06,18,42,6.70
2019,12,06,18,43,6.70
2019,12,06,18,44,6.70
2019,12,06,18,45,6.70
2019,12,06,18,46,6.70
2019,12,06,18,47,6.70
2019,12,06,18,48,6.70
2019,12,06,18,49,6.70
2019,12,06,18,50,6.70
2019,12,06,18,51,6.70
2019,12,06,18,52,6.70
2019,12,06,18,53,6.70
2019,12,06,18,54,6.70
2019,12,06,18,55,6.70
2019,12,06,18,56,6.70
2019,12,06,18,57,6.70
2019,12,06,18,58,6.70
2019,12,06,18,59,6.70
2019,12,06,19,00,6.70
2019,12,06,19,01,6.70
2019,12,06,19,02,6.70
2019,12,06,19,03,6.70
2019,12,06,19,04,6.70
2019,12,06,19,05,6.70
2019,12,06,19,06,6.70
2019,12,06,19,07,6.70
2019,12,06,19,08,6.70
2019,12,06,19,09,6.70
2019,12,06,19,10,6.70
2019,12,06,19,11,6.70
2019,12,06,19,12,6.70
2019,12,06,19,13,6.60
2019,12,06,19,14,6.60
2019,12,06,19,15,6.60
2019,12,06,19,16,6.60
2019,12,06,19,17,6.60
2019,12,06,19,18,6.60
2019,12,06,19,19,6.60
2019,12,06,19,20,6.60
2019,12,06,19,21,6.60
2019,12,06,19,22,6.60
2019,12,06,19,23,6.60
2019,12,06,19,24,6.60
2019,12,06,19,25,6.60
2019,12,06,19,26,6.60
2019,12,06,19,27,6.60
2019,12,06,19,28,6.60
2019,12,06,19,29,6.60
2019,12,06,19,30,6.60
2019,12,06,19,31,6.60
2019,12,06,19,32,6.60
2019,12,06,19,33,6.60
2019,12,06,19,34,6.60
2019,12,06,19,35,6.60
2019,12,06,19,36,6.60
2019,12,06,19,37,6.60
2019,12,06,19,38,6.60
2019,12,06,19,39,6.60
2019,12,06,19,40,6.60
2019,12,06,19,41,6.60
2019,12,06,19,42,6.60
2019,12,06,19,43,6.60
2019,12,06,19,44,6.60
2019,12,06,19,45,6.60
2019,12,06,19,46,6.60
2019,12,06,19,47,6.60
2019,12,06,19,48,6.60
2019,12,06,19,49,6.50
2019,12,06,19,50,6.60
2019,12,06,19,51,6.50
2019,12,06,19,52,6.50
2019,12,06,19,53,6.50
2019,12,06,19,54,6.50
2019,12,06,19,55,6.50
2019,12,06,19,56,6.50
2019,12,06,19,57,6.50
2019,12,06,19,58,6.50
2019,12,06,19,59,6.50
2019,12,06,20,00,6.50
2019,12,06,20,01,6.50
2019,12,06,20,02,6.50
2019,12,06,20,03,6.60
2019,12,06,20,04,6.60
2019,12,06,20,05,6.50
2019,12,06,20,06,6.50
2019,12,06,20,07,6.50
2019,12,06,20,08,6.50
2019,12,06,20,09,6.50
2019,12,06,20,10,6.50
2019,12,06,20,11,6.50
2019,12,06,20,12,6.50
2019,12,06,20,13,6.50
2019,12,06,20,14,6.50
2019,12,06,20,15,6.50
2019,12,06,20,16,6.50
2019,12,06,20,17,6.50
2019,12,06,20,18,6.50
2019,12,06,20,19,6.50
2019,12,06,20,20,6.50
2019,12,06,20,21,6.50
2019,12,06,20,22,6.50
2019,12,06,20,23,6.50
2019,12,06,20,24,6.50
2019,12,06,20,25,6.50
2019,12,06,20,26,6.50
2019,12,06,20,27,6.50
2019,12,06,20,28,6.50
2019,12,06,20,29,6.50
2019,12,06,20,30,6.50
2019,12,06,20,31,6.50
2019,12,06,20,32,6.50
2019,12,06,20,33,6.50
2019,12,06,20,34,6.50
2019,12,06,20,35,6.50
2019,12,06,20,36,6.50
2019,12,06,20,37,6.50
2019,12,06,20,38,6.50
2019,12,06,20,39,6.50
2019,12,06,20,40,6.50
2019,12,06,20,41,6.50
2019,12,06,20,42,6.50
2019,12,06,20,43,6.50
2019,12,06,20,44,6.50
2019,12,06,20,45,6.60
2019,12,06,20,46,6.60
2019,12,06,20,47,6.50
2019,12,06,20,48,6.50
2019,12,06,20,49,6.50
2019,12,06,20,50,6.50
2019,12,06,20,51,6.50
2019,12,06,20,52,6.50
2019,12,06,20,53,6.50
2019,12,06,20,54,6.50
2019,12,06,20,55,6.50
2019,12,06,20,56,6.60
2019,12,06,20,57,6.60
2019,12,06,20,58,6.50
2019,12,06,20,59,6.50
2019,12,06,21,00,6.50
2019,12,06,21,01,6.50
2019,12,06,21,02,6.50
2019,12,06,21,03,6.60
2019,12,06,21,04,6.50
2019,12,06,21,05,6.50
2019,12,06,21,06,6.50
2019,12,06,21,07,6.60
2019,12,06,21,08,6.60
2019,12,06,21,09,6.60
2019,12,06,21,10,6.60
2019,12,06,21,11,6.60
2019,12,06,21,12,6.60
2019,12,06,21,13,6.60
2019,12,06,21,14,6.60
2019,12,06,21,15,6.60
2019,12,06,21,16,6.60
2019,12,06,21,17,6.60
2019,12,06,21,18,6.50
2019,12,06,21,19,6.50
2019,12,06,21,20,6.50
2019,12,06,21,21,6.60
2019,12,06,21,22,6.60
2019,12,06,21,23,6.60
2019,12,06,21,24,6.50
2019,12,06,21,25,6.50
2019,12,06,21,26,6.50
2019,12,06,21,27,6.50
2019,12,06,21,28,6.50
2019,12,06,21,29,6.50
2019,12,06,21,30,6.50
2019,12,06,21,31,6.50
2019,12,06,21,32,6.50
2019,12,06,21,33,6.50
2019,12,06,21,34,6.50
2019,12,06,21,35,6.50
2019,12,06,21,36,6.50
2019,12,06,21,37,6.50
2019,12,06,21,38,6.50
2019,12,06,21,39,6.50
2019,12,06,21,40,6.50
2019,12,06,21,41,6.50
2019,12,06,21,42,6.50
2019,12,06,21,43,6.50
2019,12,06,21,44,6.50
2019,12,06,21,45,6.50
2019,12,06,21,46,6.50
2019,12,06,21,47,6.50
2019,12,06,21,48,6.50
2019,12,06,21,49,6.50
2019,12,06,21,50,6.50
2019,12,06,21,51,6.50
2019,12,06,21,52,6.40
2019,12,06,21,53,6.40
2019,12,06,21,54,6.40
2019,12,06,21,55,6.40
2019,12,06,21,56,6.40
2019,12,06,21,57,6.40
2019,12,06,21,58,6.40
2019,12,06,21,59,6.40
2019,12,06,22,00,6.40
2019,12,06,22,01,6.40
2019,12,06,22,02,6.40
2019,12,06,22,03,6.40
2019,12,06,22,04,6.40
2019,12,06,22,05,6.40
2019,12,06,22,06,6.40
2019,12,06,22,07,6.40
2019,12,06,22,08,6.40
2019,12,06,22,09,6.40
2019,12,06,22,10,6.40
2019,12,06,22,11,6.50
2019,12,06,22,12,6.50
2019,12,06,22,13,6.50
2019,12,06,22,14,6.50
2019,12,06,22,15,6.50
2019,12,06,22,16,6.50
2019,12,06,22,17,6.50
2019,12,06,22,18,6.50
2019,12,06,22,19,6.50
2019,12,06,22,20,6.50
2019,12,06,22,21,6.50
2019,12,06,22,22,6.50
2019,12,06,22,23,6.50
2019,12,06,22,24,6.50
2019,12,06,22,25,6.50
2019,12,06,22,26,6.50
2019,12,06,22,27,6.50
2019,12,06,22,28,6.50
2019,12,06,22,29,6.50
2019,12,06,22,30,6.50
2019,12,06,22,31,6.50
2019,12,06,22,32,6.50
2019,12,06,22,33,6.50
2019,12,06,22,34,6.50
2019,12,06,22,35,6.50
2019,12,06,22,36,6.50
2019,12,06,22,37,6.50
2019,12,06,22,38,6.50
2019,12,06,22,39,6.50
2019,12,06,22,40,6.40
2019,12,06,22,41,6.40
2019,12,06,22,42,6.40
2019,12,06,22,43,6.40
2019,12,06,22,44,6.40
2019,12,06,22,45,6.40
2019,12,06,22,46,6.40
2019,12,06,22,47,6.40
2019,12,06,22,48,6.40
2019,12,06,22,49,6.40
2019,12,06,22,50,6.40
2019,12,06,22,51,6.40
2019,12,06,22,52,6.40
2019,12,06,22,53,6.40
2019,12,06,22,54,6.40
2019,12,06,22,55,6.40
2019,12,06,22,56,6.40
2019,12,06,22,57,6.40
2019,12,06,22,58,6.40
2019,12,06,22,59,6.40
2019,12,06,23,00,6.40
2019,12,06,23,01,6.40
2019,12,06,23,02,6.40
2019,12,06,23,03,6.40
2019,12,06,23,04,6.40
2019,12,06,23,05,6.40
2019,12,06,23,06,6.40
2019,12,06,23,07,6.40
2019,12,06,23,08,6.40
2019,12,06,23,09,6.40
2019,12,06,23,10,6.40
2019,12,06,23,11,6.40
2019,12,06,23,12,6.40
2019,12,06,23,13,6.40
2019,12,06,23,14,6.40
2019,12,06,23,15,6.40
2019,12,06,23,16,6.40
2019,12,06,23,17,6.40
2019,12,06,23,18,6.40